Time,TemperatureF,DewpointF,PressureIn,WindDirection,WindDirectionDegrees,WindSpeedMPH,WindSpeedGustMPH,Humidity,HourlyPrecipIn,Conditions,Clouds,dailyrainin,SoftwareType,DateUTC
2013-01-27 00:06:00,27.4,23.0,30.50,ESE,118,0.0,-999.0,83,-99.99,,,0.00,weatherlink.com 1.10,2013-01-27 05:06:00,
2013-01-27 00:21:00,27.1,23.0,30.50,ESE,118,0.0,-999.0,83,-99.99,,,0.00,weatherlink.com 1.10,2013-01-27 05:21:00,
2013-01-27 00:37:00,27.0,23.0,30.51,ESE,118,0.0,-999.0,83,-99.99,,,0.00,weatherlink.com 1.10,2013-01-27 05:37:00,
2013-01-27 00:52:00,26.8,22.0,30.51,ESE,118,0.0,-999.0,83,-99.99,,,0.00,weatherlink.com 1.10,2013-01-27 05:52:00,
2013-01-27 01:07:00,26.7,22.0,30.52,ESE,118,0.0,-999.0,83,-99.99,,,0.00,weatherlink.com 1.10,2013-01-27 06:07:00,
2013-01-27 01:22:00,26.3,22.0,30.52,ESE,118,0.0,-999.0,83,-99.99,,,0.00,weatherlink.com 1.10,2013-01-27 06:22:00,
2013-01-27 01:37:00,26.2,22.0,30.53,ESE,118,0.0,-999.0,83,-99.99,,,0.00,weatherlink.com 1.10,2013-01-27 06:37:00,
2013-01-27 01:52:00,26.1,22.0,30.53,ESE,118,0.0,-999.0,83,-99.99,,,0.00,weatherlink.com 1.10,2013-01-27 06:52:00,
2013-01-27 02:07:00,25.9,21.0,30.54,ESE,118,0.0,-999.0,83,-99.99,,,0.00,weatherlink.com 1.10,2013-01-27 07:07:00,
2013-01-27 02:22:00,25.6,21.0,30.54,ESE,118,0.0,-999.0,83,-99.99,,,0.00,weatherlink.com 1.10,2013-01-27 07:22:00,
2013-01-27 02:37:00,25.5,21.0,30.55,ESE,118,0.0,-999.0,83,-99.99,,,0.00,weatherlink.com 1.10,2013-01-27 07:37:00,
2013-01-27 02:52:00,25.5,21.0,30.55,ESE,118,0.0,-999.0,83,-99.99,,,0.00,weatherlink.com 1.10,2013-01-27 07:52:00,
2013-01-27 03:08:00,25.2,21.0,30.56,ESE,118,0.0,-999.0,83,-99.99,,,0.00,weatherlink.com 1.10,2013-01-27 08:08:00,
2013-01-27 03:23:00,25.0,21.0,30.56,ESE,118,0.0,-999.0,83,-99.99,,,0.00,weatherlink.com 1.10,2013-01-27 08:23:00,
2013-01-27 03:38:00,24.8,20.0,30.57,ESE,118,0.0,-999.0,83,-99.99,,,0.00,weatherlink.com 1.10,2013-01-27 08:38:00,
2013-01-27 03:53:00,24.6,20.0,30.56,ESE,118,0.0,-999.0,83,-99.99,,,0.00,weatherlink.com 1.10,2013-01-27 08:53:00,
2013-01-27 04:08:00,24.4,20.0,30.55,ESE,118,0.0,-999.0,83,-99.99,,,0.00,weatherlink.com 1.10,2013-01-27 09:08:00,
2013-01-27 04:23:00,24.3,20.0,30.56,ESE,118,0.0,-999.0,83,-99.99,,,0.00,weatherlink.com 1.10,2013-01-27 09:23:00,
2013-01-27 04:38:00,24.2,20.0,30.56,ESE,118,0.0,-999.0,83,-99.99,,,0.00,weatherlink.com 1.10,2013-01-27 09:38:00,
2013-01-27 04:53:00,24.1,20.0,30.57,ESE,118,0.0,-999.0,83,-99.99,,,0.00,weatherlink.com 1.10,2013-01-27 09:53:00,
2013-01-27 05:08:00,23.9,20.0,30.57,ESE,118,0.0,-999.0,83,-99.99,,,0.00,weatherlink.com 1.10,2013-01-27 10:08:00,
2013-01-27 05:24:00,23.6,19.0,30.57,ESE,118,0.0,-999.0,83,-99.99,,,0.00,weatherlink.com 1.10,2013-01-27 10:24:00,
2013-01-27 05:38:00,23.5,19.0,30.58,ESE,118,0.0,-999.0,83,-99.99,,,0.00,weatherlink.com 1.10,2013-01-27 10:38:00,
2013-01-27 05:54:00,23.3,19.0,30.58,ESE,118,0.0,-999.0,83,-99.99,,,0.00,weatherlink.com 1.10,2013-01-27 10:54:00,
2013-01-27 06:09:00,23.1,19.0,30.59,ESE,118,0.0,-999.0,83,-99.99,,,0.00,weatherlink.com 1.10,2013-01-27 11:09:00,
2013-01-27 06:24:00,23.1,19.0,30.60,ESE,118,0.0,-999.0,83,-99.99,,,0.00,weatherlink.com 1.10,2013-01-27 11:24:00,
2013-01-27 06:40:00,23.1,19.0,30.60,ESE,118,0.0,-999.0,83,-99.99,,,0.00,weatherlink.com 1.10,2013-01-27 11:40:00,
2013-01-27 06:54:00,23.0,19.0,30.61,ESE,118,0.0,-999.0,83,-99.99,,,0.00,weatherlink.com 1.10,2013-01-27 11:54:00,
2013-01-27 07:09:00,22.9,19.0,30.61,ESE,118,0.0,-999.0,83,-99.99,,,0.00,weatherlink.com 1.10,2013-01-27 12:09:00,
2013-01-27 07:24:00,22.5,18.0,30.62,ESE,118,0.0,-999.0,82,-99.99,,,0.00,weatherlink.com 1.10,2013-01-27 12:24:00,
2013-01-27 07:40:00,22.4,18.0,30.62,ESE,118,0.0,-999.0,82,-99.99,,,0.00,weatherlink.com 1.10,2013-01-27 12:40:00,
2013-01-27 07:55:00,22.4,18.0,30.64,ESE,118,0.0,-999.0,82,-99.99,,,0.00,weatherlink.com 1.10,2013-01-27 12:55:00,
2013-01-27 08:09:00,22.3,18.0,30.65,ESE,118,0.0,-999.0,82,-99.99,,,0.00,weatherlink.com 1.10,2013-01-27 13:09:00,
2013-01-27 08:25:00,22.5,18.0,30.65,ESE,118,0.0,-999.0,82,-99.99,,,0.00,weatherlink.com 1.10,2013-01-27 13:25:00,
2013-01-27 08:40:00,22.9,19.0,30.65,ESE,118,0.0,-999.0,83,-99.99,,,0.00,weatherlink.com 1.10,2013-01-27 13:40:00,
2013-01-27 08:55:00,23.3,19.0,30.66,ESE,118,0.0,-999.0,83,-99.99,,,0.00,weatherlink.com 1.10,2013-01-27 13:55:00,
2013-01-27 09:10:00,24.2,20.0,30.66,ESE,118,0.0,-999.0,83,-99.99,,,0.00,weatherlink.com 1.10,2013-01-27 14:10:00,
2013-01-27 09:25:00,25.5,21.0,30.66,ESE,118,0.0,-999.0,83,-99.99,,,0.00,weatherlink.com 1.10,2013-01-27 14:25:00,
2013-01-27 09:40:00,26.6,22.0,30.66,ESE,118,0.0,-999.0,84,-99.99,,,0.00,weatherlink.com 1.10,2013-01-27 14:40:00,
2013-01-27 09:55:00,27.7,24.0,30.68,ENE,66,0.0,-999.0,84,-99.99,,,0.00,weatherlink.com 1.10,2013-01-27 14:55:00,
2013-01-27 10:11:00,28.8,24.0,30.68,NE,47,1.0,-999.0,83,-99.99,,,0.00,weatherlink.com 1.10,2013-01-27 15:11:00,
2013-01-27 10:25:00,29.6,25.0,30.69,ENE,76,4.0,-999.0,82,-99.99,,,0.00,weatherlink.com 1.10,2013-01-27 15:25:00,
2013-01-27 10:41:00,30.2,24.0,30.69,ESE,107,1.0,-999.0,78,-99.99,,,0.00,weatherlink.com 1.10,2013-01-27 15:41:00,
2013-01-27 10:56:00,31.0,24.0,30.69,East,93,0.0,-999.0,75,-99.99,,,0.00,weatherlink.com 1.10,2013-01-27 15:56:00,
2013-01-27 11:11:00,31.8,24.0,30.68,NE,56,2.0,-999.0,72,-99.99,,,0.00,weatherlink.com 1.10,2013-01-27 16:11:00,
2013-01-27 11:26:00,32.5,24.0,30.68,SE,128,2.0,-999.0,70,-99.99,,,0.00,weatherlink.com 1.10,2013-01-27 16:26:00,
2013-01-27 11:41:00,33.2,23.0,30.68,NNW,330,2.0,-999.0,66,-99.99,,,0.00,weatherlink.com 1.10,2013-01-27 16:41:00,
2013-01-27 11:56:00,33.7,24.0,30.68,NNE,25,2.0,-999.0,68,-99.99,,,0.00,weatherlink.com 1.10,2013-01-27 16:56:00,
2013-01-27 12:11:00,34.2,23.0,30.66,East,80,0.0,-999.0,65,-99.99,,,0.00,weatherlink.com 1.10,2013-01-27 17:11:00,
2013-01-27 12:26:00,34.4,22.0,30.65,ESE,119,0.0,-999.0,62,-99.99,,,0.00,weatherlink.com 1.10,2013-01-27 17:26:00,
2013-01-27 12:41:00,35.0,23.0,30.65,ENE,78,1.0,-999.0,62,-99.99,,,0.00,weatherlink.com 1.10,2013-01-27 17:41:00,
2013-01-27 12:57:00,35.3,23.0,30.65,NW,316,5.0,-999.0,61,-99.99,,,0.00,weatherlink.com 1.10,2013-01-27 17:57:00,
2013-01-27 13:12:00,35.8,23.0,30.64,SE,144,1.0,-999.0,61,-99.99,,,0.00,weatherlink.com 1.10,2013-01-27 18:12:00,
2013-01-27 13:27:00,36.3,23.0,30.64,WNW,297,2.0,-999.0,59,-99.99,,,0.00,weatherlink.com 1.10,2013-01-27 18:27:00,
2013-01-27 13:42:00,36.5,24.0,30.62,ENE,57,0.0,-999.0,60,-99.99,,,0.00,weatherlink.com 1.10,2013-01-27 18:42:00,
2013-01-27 13:57:00,36.7,23.0,30.62,NNW,344,1.0,-999.0,59,-99.99,,,0.00,weatherlink.com 1.10,2013-01-27 18:57:00,
2013-01-27 14:12:00,36.5,23.0,30.62,NW,318,0.0,-999.0,58,-99.99,,,0.00,weatherlink.com 1.10,2013-01-27 19:12:00,
2013-01-27 14:27:00,37.8,24.0,30.62,NNW,339,2.0,-999.0,57,-99.99,,,0.01,weatherlink.com 1.10,2013-01-27 19:27:00,
2013-01-27 14:42:00,37.6,23.0,30.60,NE,45,1.0,-999.0,57,-99.99,,,0.01,weatherlink.com 1.10,2013-01-27 19:42:00,
2013-01-27 14:57:00,38.0,24.0,30.60,NNW,334,3.0,-999.0,57,-99.99,,,0.01,weatherlink.com 1.10,2013-01-27 19:57:00,
2013-01-27 15:12:00,38.3,23.0,30.60,NW,310,0.0,-999.0,55,-99.99,,,0.01,weatherlink.com 1.10,2013-01-27 20:12:00,
2013-01-27 15:27:00,38.7,24.0,30.60,West,276,5.0,-999.0,55,-99.99,,,0.01,weatherlink.com 1.10,2013-01-27 20:27:00,
2013-01-27 15:43:00,39.3,24.0,30.60,NNW,338,0.0,-999.0,55,-99.99,,,0.01,weatherlink.com 1.10,2013-01-27 20:43:00,
2013-01-27 15:58:00,39.3,25.0,30.60,East,93,1.0,-999.0,57,-99.99,,,0.01,weatherlink.com 1.10,2013-01-27 20:58:00,
2013-01-27 16:13:00,39.0,24.0,30.60,East,93,0.0,-999.0,55,-99.99,,,0.01,weatherlink.com 1.10,2013-01-27 21:13:00,
2013-01-27 16:28:00,38.9,25.0,30.60,East,93,0.0,-999.0,57,-99.99,,,0.01,weatherlink.com 1.10,2013-01-27 21:28:00,
2013-01-27 16:43:00,38.7,25.0,30.60,East,93,1.0,-999.0,59,-99.99,,,0.01,weatherlink.com 1.10,2013-01-27 21:43:00,
2013-01-27 16:58:00,38.6,25.0,30.60,East,93,0.0,-999.0,58,-99.99,,,0.01,weatherlink.com 1.10,2013-01-27 21:58:00,
2013-01-27 17:13:00,38.5,26.0,30.61,East,93,0.0,-999.0,60,-99.99,,,0.01,weatherlink.com 1.10,2013-01-27 22:13:00,
2013-01-27 17:28:00,38.2,25.0,30.62,East,93,0.0,-999.0,60,-99.99,,,0.01,weatherlink.com 1.10,2013-01-27 22:28:00,
2013-01-27 17:43:00,37.9,25.0,30.62,East,93,0.0,-999.0,61,-99.99,,,0.01,weatherlink.com 1.10,2013-01-27 22:43:00,
2013-01-27 17:58:00,37.4,25.0,30.61,East,93,0.0,-999.0,61,-99.99,,,0.02,weatherlink.com 1.10,2013-01-27 22:58:00,
2013-01-27 18:13:00,36.8,26.0,30.62,East,93,0.0,-999.0,66,-99.99,,,0.02,weatherlink.com 1.10,2013-01-27 23:13:00,
2013-01-27 18:29:00,36.4,25.0,30.61,East,93,0.0,-999.0,63,-99.99,,,0.02,weatherlink.com 1.10,2013-01-27 23:29:00,
2013-01-27 18:44:00,36.2,25.0,30.62,East,93,0.0,-999.0,64,-99.99,,,0.02,weatherlink.com 1.10,2013-01-27 23:44:00,
2013-01-27 18:59:00,35.9,25.0,30.61,East,93,0.0,-999.0,65,-99.99,,,0.02,weatherlink.com 1.10,2013-01-27 23:59:00,
2013-01-27 19:14:00,35.8,26.0,30.61,East,93,0.0,-999.0,68,-99.99,,,0.02,weatherlink.com 1.10,2013-01-28 00:14:00,
2013-01-27 19:29:00,35.6,26.0,30.61,East,93,0.0,-999.0,67,-99.99,,,0.02,weatherlink.com 1.10,2013-01-28 00:29:00,
2013-01-27 19:44:00,35.5,26.0,30.61,East,93,0.0,-999.0,69,-99.99,,,0.02,weatherlink.com 1.10,2013-01-28 00:44:00,
2013-01-27 19:59:00,35.4,27.0,30.62,East,93,0.0,-999.0,70,-99.99,,,0.02,weatherlink.com 1.10,2013-01-28 00:59:00,
2013-01-27 20:14:00,35.1,26.0,30.62,East,93,0.0,-999.0,70,-99.99,,,0.02,weatherlink.com 1.10,2013-01-28 01:14:00,
2013-01-27 20:29:00,34.9,26.0,30.61,East,93,0.0,-999.0,71,-99.99,,,0.02,weatherlink.com 1.10,2013-01-28 01:29:00,
2013-01-27 20:44:00,34.9,26.0,30.62,East,93,0.0,-999.0,71,-99.99,,,0.02,weatherlink.com 1.10,2013-01-28 01:44:00,
2013-01-27 20:59:00,34.8,27.0,30.61,East,93,0.0,-999.0,72,-99.99,,,0.02,weatherlink.com 1.10,2013-01-28 01:59:00,
2013-01-27 21:15:00,34.7,26.0,30.62,East,93,0.0,-999.0,71,-99.99,,,0.02,weatherlink.com 1.10,2013-01-28 02:15:00,
2013-01-27 21:29:00,34.6,26.0,30.62,East,93,0.0,-999.0,72,-99.99,,,0.02,weatherlink.com 1.10,2013-01-28 02:29:00,
2013-01-27 21:44:00,34.5,27.0,30.60,East,93,0.0,-999.0,73,-99.99,,,0.02,weatherlink.com 1.10,2013-01-28 02:44:00,
2013-01-27 22:00:00,34.5,26.0,30.61,East,93,0.0,-999.0,72,-99.99,,,0.02,weatherlink.com 1.10,2013-01-28 03:00:00,
2013-01-27 22:15:00,34.6,27.0,30.60,East,93,0.0,-999.0,73,-99.99,,,0.02,weatherlink.com 1.10,2013-01-28 03:15:00,
2013-01-27 22:30:00,34.5,27.0,30.59,East,93,0.0,-999.0,73,-99.99,,,0.02,weatherlink.com 1.10,2013-01-28 03:30:00,
2013-01-27 22:45:00,34.6,27.0,30.59,East,93,0.0,-999.0,74,-99.99,,,0.02,weatherlink.com 1.10,2013-01-28 03:45:00,
2013-01-27 23:00:00,34.6,27.0,30.59,East,93,0.0,-999.0,75,-99.99,,,0.02,weatherlink.com 1.10,2013-01-28 04:00:00,
2013-01-27 23:15:00,34.5,27.0,30.59,East,93,0.0,-999.0,75,-99.99,,,0.02,weatherlink.com 1.10,2013-01-28 04:15:00,
2013-01-27 23:30:00,34.4,27.0,30.59,East,93,0.0,-999.0,75,-99.99,,,0.02,weatherlink.com 1.10,2013-01-28 04:30:00,
2013-01-27 23:45:00,34.5,28.0,30.58,East,93,0.0,-999.0,76,-99.99,,,0.03,weatherlink.com 1.10,2013-01-28 04:45:00,